[[{"header":{"parameterUnit":"m.s-1","parameterCategory":2,"la1":30.2991,"la2":30.254,"lo1":-89.0895,"lo2":-89.0444,"dy":0.0017,"dx":0.0017,"nx":28,"ny":28,"refTime":"2025-04-01T09:00:00:Z","depth":"0","parameterNumber":2,"parameterNumberName":"U-component_of_CURRENTS"},"data":[0,0,0,0,0,0,0,0,0,0,0,0,0,0,0,0,0,0,0,0,0,0,0,0,0,0,0,0,0,0,0,0,0,0,0,0,0,0,0,0,0,0,0,0,0,0,0,0,0,0,0,0,0,0,0,0,0,0,0.2831,0.2832,0,0.2854,0.2854,0.2854,0.2836,0.2836,0.2835,0.2835,0.2827,0.2828,0.2828,0,0,0,0,0,0,0,0,0,0,0,0,0,0.278,0.278,0.2831,0.2832,0.2833,0.2854,0.2854,0.2854,0.2836,0.2836,0.2835,0.2835,0.2827,0.2827,0.2828,0,0,0,0,0,0,0,0,0,0,0,0,0,0.2799,0.2781,0.2831,0.2829,0.2829,0.2854,0.2854,0.2854,0.2836,0.2836,0.2835,0.2834,0.2827,0.2827,0.2828,0.2844,0,0,0.2829,0.2829,0,0,0,0,0,0,0,0,0.2798,0.28,0.2828,0.2829,0.2829,0.2845,0.2833,0.285,0.2837,0.283,0.2835,0.2834,0.2833,0.2833,0.2834,0.2843,0.2843,0.2829,0.2829,0.2829,0.2829,0,0,0,0,0,0,0,0.2797,0.28,0.2837,0.2829,0.283,0.2829,0.2831,0.2836,0.2832,0.283,0.283,0.2838,0.2832,0.2834,0.2834,0.2843,0.2829,0.2829,0.2829,0.283,0.292,0.2922,0,0,0,0,0,0,0.2801,0.2798,0.2836,0.2838,0.2815,0.2831,0.2833,0.2838,0.2832,0.2832,0.2839,0.2837,0.2834,0.2834,0.2834,0.2895,0.2829,0.283,0.283,0.2918,0.2921,0.2923,0,0,0,0,0,0,0.28,0.2804,0.2835,0.2821,0.2826,0.2833,0.2839,0.2839,0.2845,0.284,0.2838,0.2846,0.2833,0.2833,0.2855,0.2893,0.283,0.283,0.2915,0.2919,0.2922,0.2991,0,0,0,0,0,0,0.2798,0.2803,0.2807,0.2822,0.2827,0.2857,0.284,0.284,0.2852,0.2851,0.2846,0.2844,0.2833,0.2855,0.2855,0.2892,0.283,0.2913,0.2917,0.2921,0.2986,0.2997,0.3005,0,0,0,0,0,0.2796,0.2803,0.2807,0.2811,0.2832,0.2858,0.2861,0.2861,0.2854,0.2862,0.2866,0.2844,0.2882,0.2857,0.2857,0.2895,0.2911,0.2916,0.292,0.2982,0.2994,0.3005,0,0,0,0,0,0,0.2778,0.2803,0.2807,0.282,0.2842,0.2857,0.2864,0.2869,0.2878,0.2876,0.2865,0.2865,0.2904,0.2892,0.2864,0.2936,0.2896,0.2901,0.2943,0.2954,0.2964,0.2939,0.2831,0,0,0,0,0,0.2779,0.2791,0.2818,0.2828,0.2841,0.2855,0.2865,0.2872,0.2885,0.2887,0.2888,0.2898,0.2926,0.2931,0.2946,0.2977,0.2954,0.3006,0.3015,0.3023,0.3006,0.3033,0.3042,0.2939,0.2939,0.2939,0,0,0.2773,0.2791,0.2796,0.2826,0.284,0.2867,0.2859,0.2882,0.2905,0.2886,0.2913,0.2932,0.2943,0.2986,0.3002,0.2977,0.3041,0.303,0.3036,0.3013,0.3039,0.3048,0.3057,0.2943,0.2942,0.2941,0,0,0.2775,0.2787,0.2802,0.2827,0.2861,0.2877,0.2888,0.2914,0.2924,0.296,0.2964,0.3001,0.3026,0.3048,0.3062,0.3133,0.3096,0.3148,0.3168,0.3196,0.3204,0.3211,0.3188,0.3193,0.3147,0.3147,0.3147,0,0.2769,0.279,0.281,0.2839,0.2858,0.2884,0.2909,0.2933,0.2964,0.2981,0.2975,0.3045,0.3057,0.3116,0.3143,0.3153,0.3142,0.3122,0.3207,0.3213,0.3219,0.3194,0.3197,0.3151,0.3151,0.315,0.315,0,0.2786,0.2808,0.2821,0.2865,0.2891,0.2917,0.2958,0.2986,0.3006,0.3032,0.3092,0.3117,0.3151,0.3182,0.318,0.3241,0.3211,0.322,0.3171,0.3233,0.3203,0.3206,0.3157,0.3155,0.3154,0.3153,0,0,0.2757,0.282,0.2823,0.2845,0.2905,0.2925,0.2977,0.3027,0.3058,0.3103,0.3138,0.3209,0.3219,0.3235,0.3255,0.328,0.3317,0.3263,0.3263,0.3227,0.3342,0.3262,0.3256,0.3344,0.3345,0.3346,0.3301,0,0.2762,0.2809,0.2841,0.2885,0.2912,0.2957,0.2999,0.3051,0.3095,0.3138,0.3186,0.3228,0.3243,0.3261,0.3297,0.3316,0.3327,0.3325,0.3297,0.3295,0.3207,0.3259,0.311,0.3053,0.3303,0.3304,0.3304,0,0.2762,0.2798,0.2836,0.2893,0.2907,0.2936,0.3,0.3047,0.3126,0.316,0.322,0.3244,0.3298,0.3295,0.3345,0.3343,0.3338,0.3345,0.3344,0.3241,0.322,0.3036,0.3047,0.2932,0.3307,0.3307,0.3307,0,0.2721,0.2786,0.2811,0.2833,0.2909,0.2927,0.2968,0.3049,0.3092,0.3169,0.3195,0.3267,0.3292,0.3321,0.3342,0.3342,0.3376,0.3379,0.3295,0.3288,0.3136,0.3113,0.3016,0.3396,0.3396,0.3396,0.3397,0,0.2707,0.2726,0.279,0.2805,0.2836,0.2898,0.2943,0.3,0.3081,0.3127,0.3194,0.3234,0.3302,0.333,0.3341,0.3323,0.3378,0.3288,0.3279,0.3155,0.3136,0.3008,0.2987,0.3395,0.3395,0.3395,0.3396,0,0.2654,0.2697,0.2731,0.2799,0.2816,0.2839,0.2919,0.2955,0.3037,0.3093,0.311,0.3211,0.3248,0.3288,0.3332,0.3306,0.3186,0.3281,0.3105,0.3076,0.2864,0.2854,0.2615,0.2556,0.3157,0.3155,0.3153,0,0.2631,0.2644,0.2709,0.2719,0.2744,0.2791,0.2819,0.2921,0.2963,0.3077,0.309,0.3151,0.3184,0.3211,0.3181,0.3154,0.3092,0.299,0.2966,0.2819,0.2803,0.2681,0.2643,0.2786,0.2782,0.2778,0.2775,0,0.2593,0.2612,0.264,0.2662,0.2683,0.2716,0.2765,0.2797,0.2908,0.2947,0.3011,0.3046,0.3069,0.2986,0.2955,0.2937,0.2804,0.2909,0.2814,0.2544,0.2346,0.2296,0.2825,0.2741,0.2745,0.2747,0.2749,0.275,0.2554,0.2558,0.2585,0.2593,0.2617,0.2623,0.2616,0.2673,0.2717,0.2747,0.2867,0.2848,0.281,0.2747,0.2707,0.25,0.255,0.2392,0.2401,0.2296,0.2203,0.2633,0.2515,0.2517,0.2518,0.252,0.2521,0,0.2496,0.2499,0.2511,0.2508,0.2488,0.2531,0.2556,0.2532,0.2526,0.2575,0.2599,0.2513,0.239,0.2339,0.2144,0.2005,0.1922,0.1935,0.1741,0.1746,0.2166,0.2116,0.1835,0.1835,0.1835,0.1835,0.1835,0.1835,0.2465,0.2442,0.2442,0.2376,0.2367,0.2311,0.2303,0.2285,0.2294,0.2221,0.2149,0.2144,0.2076,0.1843,0.1635,0.161,0.148,0.1343,0.1406,0.1714,0.1757,0.1799,0.1744,0.139,0.1389,0.0869,0.0865,0.0862]},{"header":{"parameterUnit":"m.s-1","parameterCategory":2,"la1":30.2991,"la2":30.254,"lo1":-89.0895,"lo2":-89.0444,"dy":0.0017,"dx":0.0017,"nx":28,"ny":28,"refTime":"2025-04-01T09:00:00:Z","depth":"0","parameterNumber":3,"parameterNumberName":"V-component_of_CURRENTS"},"data":[0,0,0,0,0,0,0,0,0,0,0,0,0,0,0,0,0,0,0,0,0,0,0,0,0,0,0,0,0,0,0,0,0,0,0,0,0,0,0,0,0,0,0,0,0,0,0,0,0,0,0,0,0,0,0,0,0,0,0.0231,0.0231,0,0.02,0.02,0.0199,0.0184,0.0184,0.0184,0.0184,0.0161,0.016,0.0159,0,0,0,0,0,0,0,0,0,0,0,0,0,0.0247,0.0247,0.0231,0.0231,0.023,0.02,0.02,0.0199,0.0184,0.0184,0.0184,0.0185,0.0161,0.016,0.0159,0,0,0,0,0,0,0,0,0,0,0,0,0,0.0231,0.0247,0.0231,0.0219,0.0218,0.02,0.02,0.0199,0.0184,0.0184,0.0184,0.0185,0.0161,0.016,0.0159,0.0152,0,0,0.0156,0.0156,0,0,0,0,0,0,0,0,0.0232,0.023,0.0222,0.022,0.0219,0.0196,0.0197,0.0184,0.0184,0.0197,0.0184,0.0185,0.0173,0.0171,0.0165,0.0151,0.015,0.0156,0.0155,0.0155,0.0155,0,0,0,0,0,0,0,0.0233,0.0231,0.0219,0.0221,0.0219,0.0205,0.0203,0.0194,0.0185,0.0196,0.0195,0.0192,0.0172,0.0166,0.0164,0.015,0.0156,0.0155,0.0155,0.0154,0.0133,0.0133,0,0,0,0,0,0,0.0239,0.0233,0.022,0.0218,0.0226,0.0205,0.0203,0.0203,0.0185,0.0183,0.0192,0.0191,0.0168,0.0166,0.0164,0.0173,0.0155,0.0154,0.0153,0.0133,0.0133,0.0133,0,0,0,0,0,0,0.0239,0.0238,0.0221,0.0224,0.0221,0.0205,0.0206,0.0203,0.0199,0.0182,0.0179,0.0191,0.0168,0.0165,0.0161,0.0172,0.0154,0.0153,0.0133,0.0133,0.0133,0.0181,0,0,0,0,0,0,0.024,0.0238,0.0241,0.0225,0.0221,0.0218,0.0205,0.0202,0.0197,0.0196,0.0181,0.0178,0.0167,0.0163,0.016,0.017,0.0152,0.0133,0.0133,0.0133,0.018,0.0183,0.0186,0,0,0,0,0,0.0241,0.0248,0.0241,0.024,0.0225,0.0218,0.0215,0.0203,0.0197,0.0199,0.0189,0.0179,0.0161,0.0162,0.0159,0.0169,0.0133,0.0133,0.0133,0.0178,0.0182,0.0186,0,0,0,0,0,0,0.0254,0.0246,0.0239,0.0243,0.0233,0.0216,0.0216,0.0206,0.0199,0.0198,0.0182,0.0179,0.0178,0.0164,0.0166,0.0161,0.0144,0.0144,0.018,0.0183,0.0186,0.0211,0.0151,0,0,0,0,0,0.0258,0.0263,0.025,0.0252,0.0249,0.0232,0.0228,0.0219,0.0209,0.0206,0.0196,0.0184,0.0175,0.0172,0.0161,0.0161,0.0154,0.0163,0.0166,0.0169,0.0186,0.0185,0.019,0.0133,0.0133,0.0133,0,0,0.0262,0.0259,0.026,0.0255,0.0246,0.0256,0.023,0.0226,0.0235,0.0205,0.0214,0.0195,0.0176,0.0177,0.0175,0.0168,0.0178,0.0169,0.0172,0.0187,0.0186,0.0191,0.0196,0.0134,0.0133,0.0133,0,0,0.0279,0.0271,0.0284,0.0282,0.0275,0.0269,0.0271,0.0258,0.0252,0.0252,0.0234,0.0224,0.0209,0.0203,0.0196,0.0208,0.0193,0.0198,0.0238,0.0237,0.0242,0.0247,0.0234,0.0237,0.0202,0.0202,0.0202,0,0.0284,0.03,0.0285,0.0299,0.0306,0.0281,0.03,0.0291,0.0279,0.0287,0.0262,0.025,0.0225,0.0239,0.0236,0.0218,0.0211,0.0228,0.0243,0.0248,0.0251,0.0237,0.024,0.0204,0.0204,0.0204,0.0204,0,0.0314,0.0327,0.0335,0.0351,0.0355,0.0365,0.0356,0.0357,0.0344,0.0344,0.0346,0.0308,0.0306,0.0287,0.0263,0.028,0.0263,0.0247,0.0239,0.026,0.0243,0.0245,0.0208,0.0207,0.0206,0.0206,0,0,0.0329,0.0353,0.0357,0.0378,0.0385,0.0395,0.0409,0.0425,0.0454,0.0423,0.0453,0.0414,0.0396,0.0386,0.0351,0.0342,0.0343,0.0308,0.0307,0.0305,0.0336,0.0331,0.0332,0.0333,0.0334,0.0335,0.031,0,0.036,0.0405,0.0407,0.0452,0.0477,0.0467,0.0492,0.0502,0.0506,0.0527,0.0485,0.0494,0.0433,0.0427,0.041,0.0367,0.0353,0.0351,0.0308,0.0307,0.0308,0.0336,0.0393,0.0377,0.0312,0.0312,0.0312,0,0.0393,0.0422,0.0472,0.0518,0.0528,0.0551,0.0597,0.0618,0.0638,0.064,0.0639,0.0606,0.0584,0.0521,0.0468,0.0471,0.041,0.0367,0.0365,0.0351,0.0306,0.0346,0.0383,0.0369,0.0315,0.0315,0.0315,0,0.0423,0.047,0.0515,0.0529,0.0573,0.0594,0.0621,0.0657,0.0698,0.0716,0.0739,0.0709,0.0696,0.0622,0.0516,0.0496,0.0457,0.0417,0.0355,0.0353,0.039,0.039,0.0421,0.0383,0.0383,0.0383,0.0383,0,0.0459,0.0495,0.0534,0.056,0.0627,0.064,0.0719,0.0738,0.0789,0.0861,0.0801,0.0838,0.0722,0.0674,0.0563,0.0475,0.0491,0.0377,0.0356,0.0405,0.0407,0.0385,0.035,0.0382,0.0382,0.0383,0.0383,0,0.0484,0.0506,0.0565,0.062,0.0642,0.0693,0.078,0.0845,0.0874,0.0958,0.0961,0.0948,0.0896,0.0766,0.0659,0.0551,0.0444,0.041,0.0468,0.0454,0.0378,0.0343,0.0336,0.0324,0.0346,0.0346,0.0346,0,0.0501,0.0533,0.061,0.0658,0.0684,0.0762,0.0826,0.0884,0.0963,0.1035,0.1083,0.1052,0.1061,0.0896,0.0718,0.0542,0.047,0.0452,0.0421,0.0402,0.0347,0.0325,0.0314,0.048,0.0481,0.0482,0.0482,0,0.0537,0.0561,0.0613,0.0711,0.0783,0.0876,0.0969,0.1043,0.1123,0.1199,0.1292,0.1301,0.1157,0.1045,0.0795,0.0653,0.0468,0.0462,0.0442,0.0463,0.0444,0.0414,0.0452,0.0489,0.0489,0.0488,0.0488,0.0488,0.0563,0.0608,0.0678,0.0773,0.0861,0.0978,0.1064,0.1179,0.1314,0.1442,0.1453,0.1504,0.1332,0.1025,0.0839,0.0568,0.0526,0.0485,0.0444,0.0424,0.0424,0.0471,0.0483,0.0482,0.0481,0.0481,0.048,0,0.0597,0.0653,0.074,0.0853,0.0953,0.0996,0.1154,0.1257,0.1423,0.1559,0.1652,0.1629,0.1425,0.1152,0.0799,0.0612,0.0526,0.0496,0.0499,0.0484,0.0541,0.0561,0.0593,0.0593,0.0593,0.0593,0.0593,0.0593,0.0618,0.0697,0.0745,0.0906,0.099,0.1131,0.1224,0.1385,0.1518,0.1709,0.178,0.181,0.1643,0.1095,0.0755,0.0638,0.0529,0.0478,0.0406,0.0469,0.0466,0.0463,0.0476,0.0489,0.0489,0.0407,0.0406,0.0405]}],[{"header":{"parameterUnit":"m.s-1","parameterCategory":2,"la1":30.2991,"la2":30.254,"lo1":-89.0895,"lo2":-89.0444,"dy":0.0017,"dx":0.0017,"nx":28,"ny":28,"refTime":"2025-04-01T09:00:00:Z","depth":"2","parameterNumber":2,"parameterNumberName":"U-component_of_CURRENTS"},"data":[0,0,0,0,0,0,0,0,0,0,0,0,0,0,0,0,0,0,0,0,0,0,0,0,0,0,0,0,0,0,0,0,0,0,0,0,0,0,0,0,0,0,0,0,0,0,0,0,0,0,0,0,0,0,0,0,0,0,0.223,0.223,0,0.2217,0.2216,0.2216,0.2203,0.2203,0.2203,0.2203,0.2198,0.2198,0.2198,0,0,0,0,0,0,0,0,0,0,0,0,0,0.2253,0.2253,0.223,0.223,0.223,0.2217,0.2216,0.2216,0.2203,0.2203,0.2203,0.2203,0.2198,0.2198,0.2198,0,0,0,0,0,0,0,0,0,0,0,0,0,0.224,0.2252,0.223,0.2223,0.2223,0.2217,0.2216,0.2216,0.2203,0.2203,0.2203,0.2203,0.2198,0.2198,0.2198,0.2196,0,0,0.2197,0.2197,0,0,0,0,0,0,0,0,0.224,0.2239,0.2224,0.2224,0.2223,0.2213,0.2223,0.221,0.2202,0.2208,0.2203,0.2203,0.2205,0.2204,0.2199,0.2196,0.2196,0.2197,0.2197,0.2197,0.2197,0,0,0,0,0,0,0,0.2241,0.2239,0.2222,0.2224,0.2224,0.2224,0.2222,0.222,0.2205,0.2207,0.2207,0.2209,0.2205,0.2199,0.2199,0.2196,0.2197,0.2197,0.2197,0.2197,0.2257,0.2259,0,0,0,0,0,0,0.2247,0.224,0.2223,0.2222,0.2234,0.2224,0.2222,0.2215,0.2205,0.2204,0.2209,0.2208,0.2199,0.2199,0.2198,0.2248,0.2197,0.2197,0.2197,0.2255,0.2257,0.2259,0,0,0,0,0,0,0.2247,0.2245,0.2224,0.2233,0.2231,0.2224,0.2216,0.2214,0.222,0.2206,0.2205,0.2217,0.2199,0.2199,0.2216,0.2246,0.2197,0.2196,0.2253,0.2256,0.2258,0.2315,0,0,0,0,0,0,0.2248,0.2245,0.2246,0.2233,0.2231,0.2229,0.2216,0.2214,0.2221,0.222,0.2213,0.2212,0.2199,0.2216,0.2215,0.2245,0.2196,0.2251,0.2254,0.2257,0.2311,0.2319,0.2326,0,0,0,0,0,0.2248,0.2247,0.2245,0.2244,0.223,0.223,0.2229,0.2223,0.2222,0.2227,0.2229,0.2213,0.2236,0.2217,0.2216,0.2246,0.225,0.2254,0.2257,0.2307,0.2317,0.2326,0,0,0,0,0,0,0.2257,0.2245,0.2243,0.2238,0.2241,0.2229,0.2233,0.2232,0.2236,0.2241,0.2227,0.2226,0.2258,0.2245,0.2224,0.2276,0.2244,0.2247,0.2282,0.2291,0.2299,0.229,0.2196,0,0,0,0,0,0.226,0.2256,0.225,0.2249,0.2251,0.2246,0.2247,0.2247,0.2248,0.2249,0.2248,0.2254,0.2271,0.2275,0.2283,0.2302,0.2295,0.2325,0.2333,0.2339,0.2334,0.2367,0.2377,0.2272,0.2272,0.2272,0,0,0.2263,0.2258,0.2255,0.2251,0.2251,0.2257,0.2246,0.2255,0.2266,0.2249,0.2268,0.2282,0.2285,0.2314,0.2326,0.2305,0.2365,0.2344,0.2349,0.234,0.2372,0.2382,0.2391,0.2275,0.2274,0.2274,0,0,0.2267,0.2264,0.2263,0.2267,0.2274,0.2274,0.2281,0.2283,0.229,0.2312,0.2314,0.2343,0.2355,0.2367,0.2374,0.2428,0.2409,0.2439,0.2463,0.2496,0.2505,0.2512,0.251,0.2517,0.2437,0.2437,0.2437,0,0.2275,0.2266,0.2265,0.227,0.2275,0.2284,0.2291,0.2302,0.2313,0.2329,0.2327,0.2378,0.238,0.2422,0.2443,0.2444,0.2449,0.2426,0.2505,0.2512,0.2519,0.2515,0.2522,0.244,0.244,0.244,0.244,0,0.2274,0.2275,0.2278,0.2284,0.2294,0.2302,0.2319,0.234,0.2358,0.2373,0.2425,0.2438,0.2467,0.2483,0.2476,0.2532,0.2516,0.2516,0.2478,0.2533,0.2526,0.2532,0.2445,0.2444,0.2443,0.2442,0,0,0.2268,0.2274,0.2276,0.2277,0.2301,0.2304,0.2341,0.237,0.2399,0.2432,0.2469,0.2514,0.2532,0.2541,0.255,0.2575,0.2625,0.2565,0.2566,0.2556,0.268,0.2596,0.2593,0.2645,0.2647,0.2648,0.2653,0,0.2267,0.2269,0.2278,0.229,0.2292,0.232,0.235,0.2386,0.2425,0.2467,0.2508,0.2549,0.2552,0.2574,0.2606,0.2625,0.2644,0.2621,0.2634,0.2633,0.2547,0.2599,0.2376,0.2356,0.2659,0.266,0.266,0,0.2256,0.226,0.2265,0.2285,0.229,0.2306,0.2357,0.2389,0.2461,0.2497,0.2558,0.2585,0.2637,0.2629,0.2688,0.2677,0.2681,0.2687,0.2688,0.2591,0.2561,0.2353,0.2355,0.267,0.2669,0.2668,0.2668,0,0.2232,0.2246,0.2247,0.2253,0.2285,0.2303,0.2332,0.2401,0.2439,0.2522,0.2557,0.2627,0.2661,0.2696,0.2716,0.2709,0.2765,0.2756,0.268,0.2673,0.2472,0.2444,0.2791,0.2791,0.2791,0.2791,0.2791,0,0.2213,0.2213,0.2235,0.2233,0.2251,0.2286,0.2328,0.2376,0.2454,0.2497,0.2571,0.2612,0.2684,0.2721,0.2732,0.2723,0.2783,0.2685,0.2676,0.2484,0.2459,0.2722,0.2714,0.2791,0.2791,0.2791,0.2791,0,0.2178,0.2191,0.2192,0.2223,0.2235,0.2251,0.2316,0.2347,0.2432,0.2491,0.2516,0.2616,0.2662,0.2707,0.2758,0.2729,0.2734,0.2713,0.2466,0.2428,0.2609,0.2604,0.2621,0.2618,0.2616,0.2614,0.2612,0,0.2158,0.2154,0.2176,0.2177,0.2189,0.2222,0.2245,0.2331,0.2367,0.248,0.2496,0.2574,0.26,0.2643,0.2609,0.2595,0.2686,0.2378,0.2323,0.2605,0.2596,0.2595,0.2593,0.2075,0.2069,0.2065,0.2061,0,0.2122,0.213,0.213,0.2133,0.2144,0.2158,0.2198,0.2225,0.2319,0.236,0.2417,0.245,0.2484,0.2367,0.2354,0.2326,0.2362,0.2278,0.2649,0.2158,0.2093,0.2083,0.2099,0.2018,0.2022,0.2025,0.2028,0.2029,0.2095,0.2082,0.208,0.2072,0.2083,0.2074,0.2055,0.2098,0.2126,0.2148,0.2263,0.2219,0.2226,0.2083,0.2007,0.1941,0.2116,0.2012,0.2026,0.2045,0.1986,0.1922,0.1801,0.1804,0.1806,0.1808,0.181,0,0.2044,0.2027,0.2017,0.1988,0.1956,0.1995,0.1998,0.1951,0.1924,0.1962,0.1979,0.1796,0.1694,0.1704,0.1517,0.1502,0.149,0.145,0.1407,0.1451,0.149,0.1402,0.1062,0.106,0.1058,0.1056,0,0,0.2016,0.197,0.1949,0.1861,0.1843,0.1764,0.1741,0.1689,0.1675,0.1604,0.1546,0.1646,0.166,0.1348,0.1294,0.1139,0.1296,0.1097,0.1698,0.1695,0.1731,0.1816,0.173,0,0,0,0,0]},{"header":{"parameterUnit":"m.s-1","parameterCategory":2,"la1":30.2991,"la2":30.254,"lo1":-89.0895,"lo2":-89.0444,"dy":0.0017,"dx":0.0017,"nx":28,"ny":28,"refTime":"2025-04-01T09:00:00:Z","depth":"2","parameterNumber":3,"parameterNumberName":"V-component_of_CURRENTS"},"data":[0,0,0,0,0,0,0,0,0,0,0,0,0,0,0,0,0,0,0,0,0,0,0,0,0,0,0,0,0,0,0,0,0,0,0,0,0,0,0,0,0,0,0,0,0,0,0,0,0,0,0,0,0,0,0,0,0,0,0.032,0.032,0,0.0305,0.0305,0.0305,0.0293,0.0293,0.0293,0.0293,0.028,0.028,0.028,0,0,0,0,0,0,0,0,0,0,0,0,0,0.0318,0.0318,0.032,0.032,0.032,0.0305,0.0305,0.0305,0.0293,0.0293,0.0293,0.0293,0.028,0.028,0.028,0,0,0,0,0,0,0,0,0,0,0,0,0,0.0312,0.0318,0.032,0.0313,0.0312,0.0305,0.0305,0.0305,0.0293,0.0293,0.0293,0.0292,0.028,0.028,0.028,0.028,0,0,0.0278,0.0278,0,0,0,0,0,0,0,0,0.0313,0.0312,0.0314,0.0313,0.0312,0.0301,0.0299,0.0297,0.0293,0.03,0.0293,0.0292,0.0287,0.0286,0.0284,0.028,0.0279,0.0278,0.0278,0.0278,0.0278,0,0,0,0,0,0,0,0.0313,0.0313,0.0314,0.0314,0.0313,0.0302,0.0301,0.0299,0.0295,0.0299,0.0298,0.0297,0.0287,0.0284,0.0283,0.0279,0.0278,0.0278,0.0278,0.0278,0.0278,0.0278,0,0,0,0,0,0,0.0317,0.0313,0.0315,0.0314,0.0312,0.0302,0.0302,0.0305,0.0295,0.0293,0.0297,0.0296,0.0285,0.0284,0.0283,0.03,0.0278,0.0278,0.0277,0.0277,0.0278,0.0278,0,0,0,0,0,0,0.0317,0.0317,0.0315,0.0313,0.0312,0.0303,0.0306,0.0304,0.0303,0.0293,0.0291,0.0298,0.0285,0.0283,0.0286,0.0299,0.0278,0.0277,0.0277,0.0277,0.0278,0.0324,0,0,0,0,0,0,0.0317,0.0317,0.0321,0.0313,0.0312,0.0318,0.0306,0.0304,0.0302,0.0301,0.0293,0.0292,0.0284,0.0287,0.0286,0.0298,0.0277,0.0277,0.0277,0.0278,0.0323,0.0326,0.0329,0,0,0,0,0,0.0317,0.0326,0.0321,0.0321,0.0318,0.0318,0.0317,0.0309,0.0303,0.0307,0.0301,0.0292,0.0289,0.0287,0.0286,0.0298,0.0277,0.0277,0.0278,0.0321,0.0326,0.0329,0,0,0,0,0,0,0.0324,0.0325,0.032,0.0328,0.0325,0.0316,0.0319,0.0312,0.031,0.031,0.0298,0.0296,0.0303,0.0292,0.029,0.0297,0.028,0.028,0.0313,0.0317,0.0321,0.0334,0.0277,0,0,0,0,0,0.0328,0.0336,0.0331,0.0337,0.0338,0.0328,0.0327,0.0322,0.0318,0.0317,0.0312,0.0305,0.0303,0.0304,0.0299,0.0305,0.029,0.031,0.0314,0.0317,0.0325,0.0311,0.0314,0.0279,0.0279,0.0279,0,0,0.0331,0.0333,0.0336,0.0339,0.0336,0.035,0.0327,0.033,0.034,0.0316,0.033,0.0318,0.0307,0.0315,0.0317,0.0309,0.0317,0.0317,0.032,0.0327,0.0312,0.0315,0.0319,0.028,0.028,0.028,0,0,0.0347,0.0345,0.0359,0.0363,0.0364,0.0363,0.0365,0.0361,0.0358,0.0365,0.0351,0.0348,0.0345,0.0341,0.0338,0.0356,0.0335,0.0352,0.0383,0.037,0.0373,0.0375,0.0355,0.0355,0.0355,0.0355,0.0355,0,0.035,0.0371,0.0362,0.038,0.0391,0.0373,0.0395,0.0391,0.0388,0.0395,0.0375,0.0373,0.0358,0.0373,0.0377,0.0366,0.0352,0.0371,0.0375,0.0377,0.0379,0.0357,0.0357,0.0357,0.0357,0.0357,0.0356,0,0.0381,0.0398,0.0408,0.043,0.0438,0.0452,0.045,0.0455,0.0447,0.0448,0.0453,0.0426,0.0427,0.0417,0.0403,0.0412,0.0395,0.0381,0.0368,0.0386,0.0361,0.036,0.036,0.036,0.0359,0.0358,0,0,0.039,0.0424,0.0428,0.0452,0.0468,0.0481,0.0499,0.0517,0.0541,0.0519,0.054,0.0519,0.0502,0.0496,0.0471,0.0455,0.0446,0.0427,0.0425,0.0412,0.0412,0.0406,0.0404,0.0434,0.0434,0.0434,0.0389,0,0.0418,0.0468,0.0475,0.0524,0.0551,0.0549,0.0574,0.0587,0.059,0.0605,0.0569,0.0578,0.0533,0.0531,0.0508,0.0467,0.0446,0.0459,0.0392,0.039,0.0387,0.0404,0.0424,0.0387,0.0388,0.0387,0.0387,0,0.0449,0.0482,0.0535,0.0584,0.0595,0.062,0.0664,0.0685,0.0699,0.07,0.0694,0.0665,0.0641,0.0592,0.0528,0.054,0.0482,0.0439,0.0436,0.0416,0.0383,0.0369,0.0384,0.0385,0.0385,0.0385,0.0386,0,0.0471,0.0525,0.0571,0.0589,0.0638,0.066,0.0687,0.0717,0.0752,0.0761,0.0777,0.0742,0.0725,0.065,0.0554,0.0544,0.0477,0.0449,0.0387,0.0385,0.0383,0.0381,0.0401,0.0401,0.0401,0.0401,0.0401,0,0.0504,0.0542,0.0587,0.0616,0.0679,0.0697,0.0766,0.0784,0.0825,0.0877,0.0828,0.0849,0.0739,0.0682,0.0584,0.0488,0.0498,0.0399,0.0378,0.0398,0.0398,0.0381,0.038,0.0399,0.04,0.04,0.04,0,0.0522,0.055,0.0611,0.067,0.0693,0.0739,0.082,0.0874,0.0897,0.0956,0.0957,0.0935,0.0869,0.0748,0.0633,0.0538,0.0437,0.0396,0.0424,0.0408,0.0344,0.0345,0.0326,0.0325,0.0325,0.0325,0.0324,0,0.0536,0.0569,0.065,0.0694,0.0723,0.0796,0.0854,0.0907,0.0971,0.1014,0.1048,0.1,0.0986,0.0815,0.0652,0.0486,0.0448,0.0379,0.0361,0.0357,0.0338,0.034,0.0342,0.0368,0.0368,0.0369,0.0369,0,0.0566,0.0592,0.0645,0.0735,0.0802,0.0888,0.0972,0.1033,0.1096,0.1143,0.1197,0.1184,0.1032,0.0893,0.0663,0.0542,0.0407,0.0376,0.0372,0.0388,0.0395,0.0377,0.0378,0.0369,0.0369,0.0369,0.0369,0.0369,0.0586,0.0627,0.0695,0.0782,0.0864,0.0967,0.1042,0.1134,0.1235,0.1306,0.1302,0.1275,0.1111,0.0832,0.0641,0.0423,0.0435,0.0341,0.0342,0.0343,0.036,0.0366,0.0338,0.0337,0.0337,0.0337,0.0337,0,0.061,0.066,0.0739,0.0844,0.0933,0.0976,0.1114,0.1191,0.1307,0.1363,0.1405,0.1224,0.1072,0.0858,0.0562,0.0388,0.0361,0.0305,0.0323,0.0325,0.0326,0.0342,0.0314,0.0314,0.0313,0.0312,0,0,0.0624,0.0693,0.0735,0.0877,0.0955,0.108,0.116,0.1272,0.1345,0.1403,0.1386,0.1369,0.1126,0.0899,0.0674,0.05,0.0441,0.0447,0.0488,0.054,0.0542,0.0373,0.0403,0,0,0,0,0]}],[{"header":{"parameterUnit":"m.s-1","parameterCategory":2,"la1":30.2991,"la2":30.254,"lo1":-89.0895,"lo2":-89.0444,"dy":0.0017,"dx":0.0017,"nx":28,"ny":28,"refTime":"2025-04-01T09:00:00:Z","depth":"4","parameterNumber":2,"parameterNumberName":"U-component_of_CURRENTS"},"data":[0,0,0,0,0,0,0,0,0,0,0,0,0,0,0,0,0,0,0,0,0,0,0,0,0,0,0,0,0,0,0,0,0,0,0,0,0,0,0,0,0,0,0,0,0,0,0,0,0,0,0,0,0,0,0,0,0,0,0.1417,0.1417,0,0.1424,0.1423,0.1423,0.1451,0.1452,0.1453,0.1453,0.1494,0.1494,0.1494,0,0,0,0,0,0,0,0,0,0,0,0,0,0.1431,0.1431,0.1417,0.1417,0.1417,0.1424,0.1423,0.1423,0.1451,0.1452,0.1453,0.1454,0.1493,0.1494,0.1494,0,0,0,0,0,0,0,0,0,0,0,0,0,0.1429,0.143,0.1417,0.1433,0.1434,0.1424,0.1423,0.1423,0.1451,0.1452,0.1453,0.1454,0.1493,0.1494,0.1494,0.1475,0,0,0.1496,0.1496,0,0,0,0,0,0,0,0,0.1429,0.1428,0.143,0.1431,0.1433,0.1439,0.1443,0.1443,0.145,0.1443,0.1453,0.1455,0.1478,0.148,0.1476,0.1477,0.1478,0.1496,0.1496,0.1497,0.1497,0,0,0,0,0,0,0,0.1429,0.1428,0.1418,0.143,0.1432,0.1441,0.1442,0.1443,0.1454,0.1444,0.1446,0.1449,0.148,0.1476,0.1478,0.1479,0.1496,0.1496,0.1497,0.1497,0.1571,0.1573,0,0,0,0,0,0,0.1429,0.1428,0.1418,0.1418,0.1435,0.144,0.1441,0.1435,0.1453,0.1457,0.1448,0.145,0.1474,0.1477,0.1479,0.1548,0.1497,0.1497,0.1497,0.157,0.1572,0.1573,0,0,0,0,0,0,0.1429,0.1428,0.1418,0.1425,0.1425,0.1438,0.1432,0.1434,0.1463,0.1456,0.1461,0.1477,0.1475,0.1479,0.1514,0.1547,0.1497,0.1498,0.1568,0.157,0.1572,0.1628,0,0,0,0,0,0,0.1429,0.1428,0.1441,0.1425,0.1424,0.1431,0.1431,0.1434,0.1461,0.1465,0.1482,0.1485,0.1477,0.1513,0.1515,0.1547,0.1498,0.1565,0.1569,0.1572,0.1624,0.1632,0.1639,0,0,0,0,0,0.143,0.1435,0.1441,0.1441,0.1435,0.1432,0.1433,0.1446,0.1462,0.1476,0.1496,0.1486,0.1534,0.1515,0.1516,0.1549,0.1564,0.1568,0.1571,0.1621,0.1631,0.1639,0,0,0,0,0,0,0.1452,0.1438,0.1444,0.1447,0.1451,0.1438,0.1457,0.1464,0.1488,0.1505,0.1501,0.1506,0.1552,0.1543,0.1522,0.1581,0.155,0.1554,0.1587,0.1596,0.1604,0.1602,0.1499,0,0,0,0,0,0.1461,0.1464,0.1453,0.1462,0.1466,0.1469,0.1477,0.1485,0.1495,0.1509,0.1522,0.1542,0.1561,0.1574,0.1587,0.1612,0.161,0.1638,0.1645,0.1651,0.1653,0.1692,0.1703,0.1585,0.1585,0.1585,0,0,0.1475,0.1468,0.1473,0.1469,0.1475,0.1479,0.1477,0.1498,0.1514,0.1509,0.1553,0.157,0.1575,0.1611,0.163,0.1611,0.1683,0.1656,0.1661,0.1659,0.1697,0.1708,0.1718,0.1588,0.1588,0.1587,0,0,0.1489,0.1498,0.15,0.1503,0.1515,0.1514,0.1527,0.1534,0.1556,0.159,0.1599,0.1637,0.1661,0.1671,0.1678,0.1733,0.1724,0.1747,0.1779,0.1817,0.1827,0.1836,0.184,0.1849,0.1746,0.1747,0.1747,0,0.1513,0.1504,0.1505,0.1507,0.1516,0.1532,0.1541,0.1559,0.1583,0.1608,0.1618,0.1682,0.1687,0.1728,0.175,0.1749,0.1762,0.1742,0.1827,0.1835,0.1843,0.1846,0.1854,0.175,0.1749,0.1749,0.1749,0,0.1511,0.1521,0.1526,0.1531,0.1544,0.1557,0.1574,0.1608,0.1643,0.1662,0.173,0.1746,0.1784,0.1796,0.1789,0.1851,0.1838,0.1834,0.1801,0.1858,0.1857,0.1865,0.1754,0.1753,0.1752,0.1751,0,0,0.1517,0.1523,0.153,0.1535,0.1559,0.1563,0.1608,0.1642,0.1683,0.1731,0.1783,0.1827,0.1855,0.1865,0.1873,0.1902,0.1962,0.1897,0.1897,0.1896,0.2036,0.1882,0.1875,0.1984,0.1986,0.1988,0.2009,0,0.1519,0.1521,0.1529,0.155,0.1551,0.1587,0.1623,0.1668,0.1718,0.1775,0.182,0.1874,0.1876,0.1908,0.1943,0.1962,0.1988,0.1955,0.1985,0.1985,0.1838,0.1881,0.1994,0.2015,0.2017,0.2018,0.2019,0,0.1504,0.1508,0.1523,0.1551,0.1559,0.1586,0.1653,0.169,0.1774,0.1821,0.1893,0.1928,0.1988,0.1981,0.2048,0.2034,0.2043,0.2049,0.205,0.189,0.1846,0.195,0.2033,0.2032,0.2031,0.203,0.2029,0,0.1479,0.1501,0.1515,0.1523,0.1561,0.1597,0.1636,0.1715,0.1759,0.1861,0.1907,0.1987,0.2034,0.2074,0.2093,0.2087,0.215,0.2138,0.2003,0.1992,0.2099,0.2089,0.2184,0.2184,0.2184,0.2184,0.2184,0,0.1449,0.1465,0.151,0.1514,0.1552,0.1592,0.1656,0.1712,0.1801,0.1849,0.1937,0.1976,0.2066,0.2107,0.2117,0.2076,0.2175,0.2008,0.1991,0.212,0.2113,0.2103,0.2094,0.2185,0.2185,0.2185,0.2184,0,0.1407,0.1437,0.1456,0.1511,0.1536,0.1569,0.1658,0.1697,0.1796,0.1862,0.1897,0.1995,0.2037,0.2091,0.2145,0.2084,0.2072,0.2034,0.2157,0.2147,0.188,0.1873,0.1877,0.1872,0.1867,0.1864,0.1861,0,0.1378,0.1384,0.145,0.1468,0.1498,0.1557,0.1593,0.1691,0.1727,0.1847,0.1859,0.1943,0.1989,0.1939,0.201,0.2005,0.1984,0.1956,0.1922,0.1867,0.1851,0.1851,0.1851,0.1854,0.1853,0.1851,0.185,0,0.1325,0.1366,0.1382,0.1421,0.146,0.149,0.1549,0.1565,0.1665,0.1769,0.1773,0.1782,0.1817,0.1842,0.185,0.1848,0.1962,0.191,0.1919,0.1886,0.1839,0.1828,0.1832,0.1835,0.1837,0.1839,0.184,0,0.1298,0.1297,0.133,0.1349,0.1397,0.1395,0.1439,0.1459,0.1504,0.1626,0.1624,0.1706,0.1798,0.176,0.1772,0.1751,0.172,0.1655,0.1676,0.1694,0.1622,0.1534,0.1422,0,0,0,0,0,0.1257,0.1236,0.1249,0.1251,0.1295,0.1319,0.1388,0.1432,0.1529,0.1486,0.1548,0.1568,0.1566,0.1613,0.1554,0.169,0.1733,0.1612,0.1671,0.1751,0.1769,0.17,0,0,0,0,0,0,0.1223,0.1234,0.1214,0.1166,0.1154,0.1181,0.1221,0.1286,0.1267,0.1376,0.1388,0.1463,0.1496,0.1584,0.1523,0.1535,0.1535,0.1668,0.1663,0.1741,0.1757,0.1771,0.1707,0,0,0,0,0]},{"header":{"parameterUnit":"m.s-1","parameterCategory":2,"la1":30.2991,"la2":30.254,"lo1":-89.0895,"lo2":-89.0444,"dy":0.0017,"dx":0.0017,"nx":28,"ny":28,"refTime":"2025-04-01T09:00:00:Z","depth":"4","parameterNumber":3,"parameterNumberName":"V-component_of_CURRENTS"},"data":[0,0,0,0,0,0,0,0,0,0,0,0,0,0,0,0,0,0,0,0,0,0,0,0,0,0,0,0,0,0,0,0,0,0,0,0,0,0,0,0,0,0,0,0,0,0,0,0,0,0,0,0,0,0,0,0,0,0,0.0273,0.0273,0,0.0271,0.0271,0.0271,0.0271,0.0271,0.0271,0.0271,0.0275,0.0275,0.0275,0,0,0,0,0,0,0,0,0,0,0,0,0,0.0262,0.0262,0.0273,0.0273,0.0273,0.0271,0.0271,0.0271,0.0271,0.0271,0.0271,0.0271,0.0275,0.0275,0.0275,0,0,0,0,0,0,0,0,0,0,0,0,0,0.0264,0.0262,0.0273,0.0272,0.0272,0.0271,0.0271,0.0271,0.0271,0.0271,0.0271,0.0271,0.0275,0.0275,0.0275,0.0277,0,0,0.0276,0.0276,0,0,0,0,0,0,0,0,0.0264,0.0265,0.0272,0.0272,0.0272,0.0271,0.0269,0.0273,0.0271,0.0271,0.0271,0.0271,0.0274,0.0275,0.0274,0.0277,0.0277,0.0276,0.0276,0.0276,0.0276,0,0,0,0,0,0,0,0.0264,0.0265,0.0272,0.0272,0.0272,0.0268,0.0268,0.027,0.0273,0.0271,0.0271,0.0271,0.0274,0.0274,0.0274,0.0277,0.0276,0.0276,0.0276,0.0276,0.0293,0.0293,0,0,0,0,0,0,0.0265,0.0265,0.0272,0.0272,0.0268,0.0268,0.0268,0.0272,0.0273,0.0273,0.0271,0.0271,0.0274,0.0274,0.0275,0.0299,0.0276,0.0276,0.0276,0.0292,0.0293,0.0293,0,0,0,0,0,0,0.0265,0.0266,0.0272,0.0268,0.0269,0.0268,0.0272,0.0272,0.0277,0.0273,0.0273,0.0277,0.0274,0.0274,0.0285,0.0299,0.0276,0.0277,0.0292,0.0293,0.0293,0.0334,0,0,0,0,0,0,0.0264,0.0266,0.0271,0.0268,0.0269,0.0279,0.0272,0.0271,0.0276,0.0276,0.0278,0.0278,0.0274,0.0285,0.0285,0.0299,0.0277,0.0292,0.0292,0.0293,0.0332,0.0336,0.0339,0,0,0,0,0,0.0264,0.0273,0.0272,0.0273,0.0276,0.0279,0.0279,0.0279,0.0276,0.0282,0.0284,0.0278,0.0288,0.0285,0.0286,0.03,0.0291,0.0292,0.0293,0.0331,0.0335,0.0339,0,0,0,0,0,0,0.027,0.0274,0.0272,0.0281,0.0283,0.0279,0.0286,0.0283,0.0288,0.0291,0.0285,0.0286,0.0299,0.0291,0.0288,0.0304,0.0288,0.0288,0.0316,0.032,0.0324,0.0329,0.0277,0,0,0,0,0,0.0274,0.0284,0.0282,0.029,0.0292,0.029,0.0292,0.0291,0.0293,0.0295,0.0297,0.0297,0.0301,0.0305,0.0306,0.0317,0.0299,0.0324,0.0328,0.0331,0.0334,0.0317,0.0319,0.0296,0.0296,0.0296,0,0,0.0278,0.0282,0.0286,0.0292,0.0294,0.0307,0.0291,0.0299,0.0311,0.0295,0.0315,0.0311,0.0306,0.032,0.0325,0.0317,0.0327,0.0331,0.0334,0.0336,0.0318,0.0321,0.0323,0.0296,0.0296,0.0296,0,0,0.0292,0.0295,0.0308,0.0314,0.032,0.0321,0.0325,0.0327,0.0329,0.0343,0.0336,0.0339,0.0346,0.0346,0.0346,0.0366,0.0345,0.0367,0.0391,0.0375,0.0377,0.0378,0.0357,0.0356,0.0369,0.0369,0.0369,0,0.0297,0.0316,0.0312,0.0328,0.0339,0.0331,0.035,0.0352,0.0358,0.0366,0.0355,0.0365,0.0358,0.0374,0.038,0.0375,0.036,0.0378,0.0379,0.038,0.0381,0.0359,0.0358,0.0371,0.0371,0.0371,0.0371,0,0.0322,0.034,0.0349,0.0371,0.038,0.0396,0.0399,0.0408,0.0409,0.0412,0.0424,0.041,0.0416,0.0412,0.0404,0.0411,0.0397,0.0385,0.0371,0.0386,0.0362,0.0359,0.0374,0.0374,0.0373,0.0372,0,0,0.0327,0.036,0.0366,0.0387,0.0406,0.0418,0.0439,0.0458,0.048,0.0472,0.049,0.0486,0.0475,0.0473,0.0457,0.0441,0.043,0.042,0.0418,0.0401,0.0392,0.0373,0.0368,0.042,0.042,0.042,0.0372,0,0.0349,0.0392,0.0402,0.0446,0.047,0.0475,0.05,0.0515,0.0523,0.0538,0.0515,0.0528,0.0499,0.0503,0.0482,0.0448,0.0427,0.0444,0.0377,0.0374,0.0358,0.0366,0.042,0.037,0.0369,0.0369,0.0369,0,0.0371,0.0401,0.0448,0.0494,0.0505,0.053,0.0572,0.0593,0.0609,0.0613,0.0612,0.0593,0.0576,0.0541,0.0485,0.0499,0.045,0.0413,0.041,0.0377,0.0352,0.035,0.0364,0.0365,0.0365,0.0365,0.0365,0,0.0382,0.0433,0.0475,0.0491,0.0539,0.0563,0.059,0.062,0.0651,0.0662,0.0676,0.0649,0.0638,0.0574,0.0498,0.0494,0.0424,0.0407,0.0341,0.0338,0.0351,0.035,0.0359,0.0359,0.0359,0.0359,0.0359,0,0.0402,0.0438,0.0487,0.0512,0.057,0.0592,0.0653,0.0673,0.0708,0.0747,0.0718,0.0726,0.0646,0.0594,0.0515,0.0424,0.0436,0.0346,0.0327,0.0369,0.037,0.0349,0.0349,0.0357,0.0358,0.0358,0.0358,0,0.0407,0.0439,0.0494,0.0554,0.0578,0.062,0.0697,0.074,0.0767,0.0809,0.0812,0.079,0.0728,0.0635,0.0533,0.0453,0.0363,0.0324,0.0378,0.0362,0.0281,0.0283,0.0247,0.0246,0.0245,0.0244,0.0243,0,0.0413,0.0442,0.0523,0.0563,0.0594,0.0663,0.0714,0.0767,0.0813,0.0845,0.0861,0.082,0.0785,0.0631,0.0533,0.0379,0.035,0.0292,0.0282,0.0286,0.0271,0.0274,0.0277,0.0242,0.0242,0.0242,0.0241,0,0.0425,0.0456,0.0502,0.0583,0.0645,0.072,0.0792,0.0827,0.0882,0.0902,0.0897,0.0819,0.0748,0.0632,0.0516,0.0403,0.0324,0.0282,0.0283,0.0273,0.028,0.0266,0.0271,0.0238,0.0239,0.0239,0.0239,0,0.0434,0.0465,0.0528,0.0599,0.0679,0.0752,0.0794,0.0845,0.0891,0.0917,0.0914,0.0836,0.0802,0.0645,0.0539,0.0428,0.0391,0.0331,0.0329,0.0331,0.0366,0.0387,0.0364,0,0,0,0,0,0.0438,0.0474,0.0539,0.0619,0.0699,0.0748,0.0836,0.0873,0.0917,0.0913,0.0915,0.0846,0.0694,0.0644,0.053,0.0514,0.0368,0.0372,0.0297,0.0222,0.0225,0.025,0,0,0,0,0,0,0.0441,0.0497,0.0531,0.0622,0.0678,0.0769,0.0826,0.0859,0.0865,0.0886,0.082,0.0788,0.0658,0.0755,0.0518,0.0488,0.0416,0.0313,0.031,0.022,0.0223,0.0226,0.0252,0,0,0,0,0]}]]